Terminal Aerodrome Forecast
Issued by NWS Lake Charles, LA

Home | Current Version | Previous Version | Text Only | Print | Product List | Glossary On
Versions: 1 2 3 4 5 6 7 8 9 10 11 12 13 14
623
FTUS44 KLCH 302339
TAFAEX
TAF
KAEX 302339Z 3100/3124 VRB04KT P6SM FEW045
     FM310800 VRB03KT 5SM BR SKC
      TEMPO 3109/3113 2SM BR
     FM311400 VRB05KT P6SM SCT030=

USA.gov is the U.S. government's official web portal to all federal, state and local government web resources and services.